Regional Weather Roundup
Issued by NWS

Home | Current Version | Previous Version | Graphics & Text | Print | Product List | Glossary On
Versions: 1 2 3 4 5 6 7 8 9 10 11 12 13 14 15 16 17 18 19 20 21 22 23 24 25 26 27 28 29 30 31 32 33 34 35 36 37 38 39 40 41 42 43 44 45 46 47 48 49 50
000
ASUS43 KOAX 280902
RWRNE

WEATHER ROUNDUP FOR NEBRASKA
NATIONAL WEATHER SERVICE OMAHA NE
400 AM CDT TUE JUL 28 2015

NOTES: SATELLITE DATA IS BEING USED TO AUGMENT CLOUD COVER ABOVE
       12000 FEET.
       "FAIR" INDICATES FEW OR NO CLOUDS BELOW 12,000 FEET WITH NO
       SIGNIFICANT WEATHER AND/OR OBSTRUCTIONS TO VISIBILITY.

  * THESE STATIONS DO NOT REPORT WEATHER SUCH AS RAIN...SNOW OR FOG.

NEZ001>004-019>022-054>056-281000-
NEBRASKA PANHANDLE

CITY           SKY/WX    TMP DP  RH WIND       PRES   REMARKS
SCOTTSBLUFF    CLEAR     59  49  69 NW9       29.99R
ALLIANCE       CLEAR     61  48  62 NW15      29.94R
CHADRON        CLEAR     59  48  67 W21G29    29.94R
KIMBALL        CLEAR     62  34  35 N12       30.01R
SIDNEY         CLEAR     65  46  50 NW18G25   29.97R
$$

NEZ057>060-069>072-079>082-281000-
SOUTHWEST NEBRASKA

CITY           SKY/WX    TMP DP  RH WIND       PRES   REMARKS
NORTH PLATTE   CLEAR     73  68  84 CALM      29.77R
IMPERIAL       CLEAR     73  64  73 NW15      29.81R
MCCOOK         CLEAR     80  67  64 SW15G22   29.74R
$$

NEZ005>010-023>029-035>040-094-281000-
NORTH CENTRAL NEBRASKA

CITY           SKY/WX    TMP DP  RH WIND       PRES   REMARKS
VALENTINE      CLOUDY    67  63  87 W13       29.81R
AINSWORTH      CLOUDY    70  65  83 CALM      29.75F
BROKEN BOW     PTCLDY    81  68  64 N6        29.76F
O`NEILL        CLOUDY    68  68  98 E14       29.74F
ORD            MOCLDY    76  68  76 CALM      29.75R
$$

NEZ041-046>049-061>064-073>077-083>087-281000-
SOUTH CENTRAL NEBRASKA

CITY           SKY/WX    TMP DP  RH WIND       PRES   REMARKS
GRAND ISLAND   CLEAR     78  68  71 S15       29.74F
AURORA         PTCLDY    78  70  76 S14       29.75F
HASTINGS       CLEAR     78  69  73 S10       29.76F
HEBRON         PTCLDY    78  68  69 S12G17    29.78F
HOLDREGE       PTCLDY    79  68  68 S17G23    29.75F
KEARNEY *      PTCLDY    79  70  73 S15G21    29.74F
$$

NEZ011>018-030>034-042>045-281000-
NORTHEAST NEBRASKA

CITY           SKY/WX    TMP DP  RH WIND       PRES   REMARKS
NORFOLK        MOCLDY    79  72  79 S18G24    29.70F
ALBION         MOCLDY    78  67  69 SW3       29.75R
BLAIR          CLEAR     75  70  84 S13       29.78F
COLUMBUS *     PTCLDY    79  68  69 S9        29.74F
FREMONT        PTCLDY    77  72  83 SE14G22   29.75F
TEKAMAH        TSTM      75  73  93 SE8       29.78F FOG
$$

NEZ050>053-065>068-078-088>093-281000-
SOUTHEAST NEBRASKA

CITY           SKY/WX    TMP DP  RH WIND       PRES   REMARKS
LINCOLN        CLEAR     81  71  71 S13       29.77F
OMAHA EPPLEY   PTCLDY    76  72  87 SE16      29.79F
BEATRICE       CLEAR     79  71  77 S14G20    29.80F
FALLS CITY     CLEAR     75  73  93 SE8       29.82F
NEBRASKA CITY  CLEAR     74  73  98 SE8       29.82F
$$

NEZ044-045-051>053-067-281000-
OMAHA AREA

CITY           SKY/WX    TMP DP  RH WIND       PRES   REMARKS
OMAHA EPPLEY   PTCLDY    76  72  87 SE16      29.79F
BLAIR          CLEAR     75  70  84 S13       29.78F
FREMONT        PTCLDY    77  72  83 SE14G22   29.75F
OFFUTT AFB     CLEAR     74  72  91 SE9       29.79F
WAHOO          FAIR      75  73  92 SE13      29.76F
$$


USA.gov is the U.S. government's official web portal to all federal, state and local government web resources and services.